Orbital Elements at Epoch 2459000.5 (2020-May-31.0) TDB
Reference: JPL 16 (heliocentric ecliptic J2000)
Element | Value | Uncertainty (1-sigma) | Units |
e | .07656063462394117 | 5.0848e-08 | |
a | 2.689089334276025 | 1.8678e-08 | au |
q | 2.483210948283381 | 1.4048e-07 | au |
i | 4.23837899045765 | 4.8627e-06 | deg |
node | 96.04031574472771 | 8.2829e-05 | deg |
peri | 313.1010124851175 | 9.1577e-05 | deg |
M | 234.3777813599812 | 4.2421e-05 | deg |
tp | 2459562.543889623279 (2021-Dec-14.04388962) | 0.000193 | TDB |
period | 1610.668896432971 4.41 | 1.6781e-05 4.594e-08 | d yr |
n | .2235096243537485 | 2.3287e-09 | deg/d |
Q | 2.894967720268669 | 2.0108e-08 | au |
|
| | Orbit Determination Parameters
Additional Information
|